Location: Clayton (historical)
(34.0300°N, 118.0259°W)
Time: 10:10:17
(UTC+00:00)

Hubble Space Telescope - Pass Details

Date: 27 January 2021
Orbit: 536 x 539 km, 28.5° (Epoch: 28 February)

Event Time Altitude Azimuth Distance (km) Brightness Sun altitude
Rises 02:31:29 0° 262° (W) 2,674 6.2 -15.6°
Reaches altitude 10° 02:34:14 10° 245° (WSW) 1,782 4.7 -16.1°
Maximum altitude 02:37:12 19° 198° (SSW) 1,295 3.0 -16.7°
Drops below altitude 10° 02:40:11 10° 152° (SSE) 1,780 3.2 -17.3°
Enters shadow 02:40:42 - 147° (SSE) 1,930 3.4 -17.4°
